Showing default

IRIS-F3, 62619

Orbit data source: Space-Track

IRIS-F3, 62619 is a payload satellite owned by NCKU (TW) in SSO that was launched on Tue, 14 Jan 2025 UTC via an FALCON 9 launch vehicle from the Air Force Western Test Range (AFWTR). Payload-class satellites include a variety of spacecraft equipped with specific instruments for various scientific and technological missions. These include communications satellites like Starlink; space stations such as the ISS; scientific satellites like the Hubble; Earth observation satellites from companies like Planet Labs, Umbra, and HawkEye 360; GPS; miniature CubeSats for education and research; and military/defense satellites.

Loading next visibility...
Identifier
62619, 2025-009L
Orbit
SSO
Country
Flag of TWTW / TWN
Related business
Manufacturer
NCKU
Mission
Operational Amateur Technology
Bus & Motor
CUBESAT 3U, Unknown motor
Mass
4 kg wet, 4 kg dry
Launch date (UTC)
2025-01-14 (1 year ago)
Launch vehicle
FALCON 9
Launch site
Air Force Western Test Range (AFWTR)
Object type
Payload
Rocket body
Debris
Shape & HBR
Box, 0.3 m
Radar Cross Section
0.800 m², Medium (>0.1 m² and < 1m²)

Expand to show TLE details & history
Last TLE update: 21 hours ago

TLE from 21 hours ago
0 IRIS-F3
1 62619U 25009L   26034.20713767  .00018765  00000-0  77897-3 0  9996
2 62619  97.4157 116.2843 0007666  78.5568 281.6529 15.23862408 58395
Epoch: 2026-02-03T04:58Z
TLE epoch observation values (Epoch: 2026-02-03T04:58:16.694Z)
Latitude
-0.00012°
Longitude
-91.67663°
Altitude
496.238 km
Speed
7.617 km/s
True Right ascension
07h 45m 08s
True Declination
0° 00' 00"
Sunlit
Object was in full shadow at epoch
Visualization orbit readout
Latitude
Unknown
Longitude
Unknown
Altitude
Unknown
Speed
Unknown
Apparent Right ascension
Unknown
Apparent Declination
Unknown
Sunlit
N/A
Visualization observer readout
Local Sidereal Time
04:13:03
Azimuth
Unknown
Elevation
Unknown
Doppler factor
Unknown
Orbital elements
Apogee altitude
496.431 km
Perigee altitude
485.899 km
Semi-major axis
6,869.302 km
Eccentricity
0.00077
Inclination
97.4157°
RAAN
116.2843°
Arg. of periapsis
78.5568°
True anomaly
281.56685°
Mean anomaly
281.6529°
Eccentric anomaly
281.60988°
Mean motion
3.81219 °/min
Orbital period
94.43 mins
BSTAR
0.00077897
Loading maneuver chart data...
Computing Atmospheric mass density...
Loading historical data...
Loading historical data...
Loading historical data...
Loading historical data...
Loading historical data...
Loading historical data...
Loading historical data...

Documentation

Showing up to 5 results
|